SL-16 DEB, 22605

Orbit data source: Space-Track

SL-16 DEB, 22605 is space debris in LEO originally from a launch on Fri, 26 Mar 1993 UTC launched from the Tyuratam Missile And Space Complex (TTMTR). Debris objects in space refer to the collection of defunct objects orbiting the Earth. Examples of debris include non-operational satellites, rocket bodies, and fragments generated from explosions, collisions, or faulty payload assembly.

Loading next visibility...
Identifier
22605, 1993-016P
Orbit
LEO
Country
Flag of CISCIS
Related business
Manufacturer
Unknown
Mission
Spacecraft
Bus & Motor
Unknown
Mass
Unknown
Launch date (UTC)
1993-03-26 (33 years ago)
Launch vehicle
Unknown
Launch site
Tyuratam Missile And Space Complex (TTMTR)
Object type
Payload
Rocket body
Debris
Shape & HBR
Unknown shape, 0.1 m
Radar Cross Section
Medium (>0.1 m² and <1 m²)

Expand to show TLE details & history
Last TLE update: 22 hours ago

TLE from 22 hours ago
0 SL-16 DEB
1 22605U 93016P   26254.83143407  .00000080  00000-0  92743-4 0  9990
2 22605  70.9977 163.8687 0131701 271.3791 146.5855 13.91181940696336
Epoch: 2026-09-11T19:57Z
TLE epoch observation values (Epoch: 2026-09-11T19:57:15.903Z)
Latitude
54.07005°
Longitude
-98.08338°
Altitude
1,013.506 km
Speed
7.31 km/s
True Right ascension
12h 48m 19s
True Declination
53° 54' 44"
Sunlit
Object was in daylight at epoch
Visualization orbit readout
Latitude
Unknown
Longitude
Unknown
Altitude
Unknown
Speed
Unknown
Apparent Right ascension
Unknown
Apparent Declination
Unknown
Sunlit
N/A
Visualization observer readout
Local Sidereal Time
10:38:45
Azimuth
Unknown
Elevation
Unknown
Doppler factor
Unknown
Orbital elements
Apogee altitude
1,018.589 km
Perigee altitude
826.29 km
Semi-major axis
7,300.577 km
Eccentricity
0.01317
Inclination
70.9977°
RAAN
163.8687°
Arg. of periapsis
271.3791°
True anomaly
147.4053°
Mean anomaly
146.5855°
Eccentric anomaly
146.99652°
Mean motion
3.47942 °/min
Orbital period
103.47 mins
BSTAR
0.000092743
Loading maneuver chart data...
Computing Atmospheric mass density...
Loading historical data...
Loading historical data...
Loading historical data...
Loading historical data...
Loading historical data...
Loading historical data...
Loading historical data...

Documentation

Showing up to 5 results
|